Find Starlink 37966

NORAD ID: 100478 Int'l Des: 2026-196 Owner: SPXS Country: US Constellation: starlink operational

Aktuelle Ansicht

3D-Globus wird geladen...

About Starlink 37966

Starlink 37966 (NORAD 100478) is a starlink constellation satellite launched Aug 25, 2026 by SPXS of US. with a mass of 575.00 kg.

Nächste Überflüge

Passes for default location (London). Set your location on the main map for personalized predictions.

Höhenverlauf

Loading altitude history...

Zweizeiliger Elementsatz

1 A0478U 26196F 26258.53804492 -.00965157 00000-0 -62436-2 0 9999
2 A0478 53.1574 266.3857 0000408 61.7095 298.3968 15.77967652 4579
Epoch: 15. Sept. 2026 • Age: 120 hours

Aktueller Status

Höhe 375.3 km
Apogäum / Perigäum N/A
Geschwindigkeit 7.68 km/s
Subsatellitenpunkt -41.27°S, 89.34°W
Startdatum 25. Aug. 2026
Alter 26 days
Typ internet

Technische Details

Klassifizierung Payload
Masse 575.00 kg
Trockenmasse 530.00 kg
Länge 0.30 m
Spannweite 29.00 m
Form ? Box + pan
Hersteller SPXS
Bus-Typ Starlink V2MO
Phasenstatus In Orbit
Besitzer/Staat SPXS/US

Most Searched